EHI
0 0 0 0 0 0 0 0 0 0 0 0 0 0 0 0 0 0 0 0 0 0 0 0 0 0 0 0 0 0 0 0 0 0 0 0 0 0 0 0 0 0 0 0
0 0 0 0 0 0 0 0 0 0 0 0 0 0 0 0 0 0 0 0 0 0 0 0 0 0 0 0 0 0 0 0 0 0 0 0 0 0 0 0 0 0 0 0
0 0 0 0 0 0 0 0 0 0 0 0 0 0 0 0 0 0 0 0 0 0 0 0 0 0 0 0 0 0 0 0 0 0 0 0 0 0 0 0 0 0 0 0
0 0 0 0 0 0 0 0 0 0 0 0 0 0 0 0 0 0 0 0 0 0 0 0 0 0 0 0 0 0 0 0 0 0 0 0 0 0 0 0 0 0 0 0
0 0 0 0 0 0 0 0 0 0 0 0 0 0 0 0 0 0 0 0 0 0 0 0 0 0 0 0 0 0 0 0 0 0 0 0 0 0 0 0 0 0 0 0
0 0 0 0 0 0 0 0 0 0 0 0 0 0 0 0 0 0 0 0 0 0 0 0 0 0 0 0 0 0 0 0 0 0 0 0 0 0 0 0 0 0 0 0
0 0 0 0 0 0 0 0 0 0 0 0 0 0 0 0 0 0 0 0 0 0 0 0 0 0 0 0 0 0 0 0 0 0 0 0 0 0 0 0 0 0 0 0
0 0 0 0 0 0 0 0 0 0 0 0 0 0 0 0 0 0 0 0 0 0 0 0 0 0 0 0 0 0 0 0 0 0 0 0 0 0 0 0 0 0 0 0
0 0 0 0 0 0 0 0 0 0 0 0 0 0 0 0 0 0 0 0 0 0 0 0 0 0 0 0 0 0 0 0 0 0 0 0 0 0 0 0 0 0 0 0
0 0 0 0 0 0 0 0 0 0 0 0 0 0 0 0 0 0 0 0 0 0 0 0 0 0 0 0 0 0 0 0 0 0 0 0 0 0 0 0 0 0 0 0
0 0 0 0 0 0 0 0 0 0 0 0 0 0 0 0 0 0 0 0 0 0 0 0 0 0 0 0 0 0 0 0 0 0 0 0 0 0 0 0 0 0 0 0
0 0 0 0 0 0 0 0 0 0 0 0 0 0 0 0 0 0 0 0 0 0 0 0 0 0 0 0 0 0 0 0 0 0 0 0 0 0 0 0 0 0 0 0
0 0 0 0 0 0 0 0 0 0 0 0 0 0 0 0 0 0 0 0 0 0 0 0 0 0 0 0 0 0 0 0 0 0 0 0 0 0 0 0 0 0 0 0
0 0 0 0 0 0 0 0 0 0 0 0 0 0 0 0 0 0 0 0 0 0 0 0 0 0 0 0 0 0 0 0 0 0 0 0 0 0 0 0 0 0 0 0
0 0 0 0 0 0 0 0 0 0 0 0 0 0 0 0 0 0 0 0 0 0 0 0 0 0 0 0 0 0 0 0 0 0 0 0 0 0 0 0 0 0 0 0
0 0 0 0 0 0 0 0 0 0 0 0 0 0 0 0 0 0 0 0 0 0 0 0 0 0 0 0 0 0 0 0 0 0 0 0 0 0 0 0 0 0 0 0
0 0 0 0 0 0 0 0 0 0 0 0 0 0 0 0 0 0 0 0 0 0 0 0 0 0 0 0 0 0 0 0 0 0 0 0 0 0 0 0 0 0 0 0
0 0 0 0 0 0 0 0 0 0 0 0 0 0 0 0 0 0 0 0 0 0 0 0 0 0 0 0 0 0 0 0 0 0 0 0 0 0 0 0 0 0 0 0
0 0 0 0 0 0 0 0 0 0 0 0 0 0 0 0 0 0 0 0 0 0 0 0 0 0 0 0 0 0 0 0 0 0 0 0 0 0 0 0 0 0 0 0
0 0 0 0 0 0 0 0 0 0 0 0 0 0 0 0 0 0 0 0 0 0 0 0 0 0 0 0 0 0 0 0 0 0 0 0 0 0 0 0 0 0 0 0
0 0 0 0 0 0 0 0 0 0 0 0 0 0 0 0 0 0 0 0 0 0 0 0 0 0 0 0 0 0 0 0 0 0 0 0 0 0 0 0 0 0 0 0
0 0 0 0 0 0 0 0 0 0 0 0 0 0 0 0 0 0 0 0 0 0 0 0 0 0 0 0 0 0 0 0 0 0 0 0 0 0 0 0 0 0 0 0
0 0 0 0 0 0 0 0 0 0 0 0 0 0 0 0 0 0 0 0 0 0 0 0 0 0 0 0 0 0 0 0 0 0 0 0 0 0 0 0 0 0 0 0
0 0 0 0 0 0 0 0 0 0 0 0 0 0 0 0 0 0 0 0 0 0 0 0 0 0 0 0 0 0 0 0 0 0 0 0 0 0 0 0 0 0 0 0
0 0 0 0 0 0 0 0 0 0 0 0 0 0 0 0 0 0 0 0 0 0 0 0 0 0 0 0 0 0 0 0 0 0 0 0 0 0 0 0 0 0 0 0
0 0 0 0 0 0 0 0 0 0 0 0 0 0 0 0 0 0 0 0 0 0 0 0 0 0 0 0 0 0 0 0 0 0 0 0 0 0 0 0 0 0 0 0
0 0 0 0 0 0 0 0 0 0 0 0 0 0 0 0 0 0 0 0 0 0 0 0 0 0 0 0 0 0 0 0 0 0 0 0 0 0 0 0 0 0 0 0
Wind_Speed
2 1 0 1 1 2 3 5 6 4 2 4 6 6 6 7 8 9 10 10 8 7 6 5 4 3 3 4 4 4 4 6 7 6 5 5 5 5 4 4 4 4 3 3
1 2 1 1 2 0 1 2 2 2 1 3 3 3 6 8 9 10 9 9 9 8 7 6 5 5 4 4 4 3 5 6 6 5 5 6 6 5 4 4 4 3 4 4
2 4 2 2 3 1 2 1 3 2 2 2 3 5 6 7 8 8 8 8 9 8 7 6 5 4 4 4 3 3 5 5 4 5 6 6 6 5 5 5 4 4 4 4
1 2 1 3 1 3 5 3 2 1 1 1 1 0 2 5 6 8 9 9 9 9 8 6 5 4 4 2 2 3 4 4 4 5 6 5 5 6 6 5 5 5 5 5
3 1 2 2 1 1 2 1 2 2 2 3 2 2 4 6 6 6 6 7 7 7 7 7 6 5 3 3 2 3 4 5 5 5 6 5 7 7 6 5 5 5 4 5
4 2 4 4 3 2 4 0 2 1 2 3 3 3 5 7 7 7 7 7 7 8 7 8 7 4 3 3 3 5 6 6 5 5 6 7 8 7 5 5 6 5 5 5
3 3 5 3 4 2 2 5 2 1 1 1 1 3 4 6 6 6 7 7 8 7 7 8 8 5 4 4 6 7 6 5 4 5 6 6 6 5 5 5 5 5 5 5
4 3 6 2 2 3 4 2 1 0 1 0 1 2 3 5 6 7 8 9 8 8 8 7 7 6 6 7 8 6 5 5 5 5 5 4 4 4 5 6 6 6 5 4
6 5 2 1 1 1 1 1 1 1 1 1 1 2 3 4 6 7 7 8 7 7 8 8 7 6 7 9 8 6 5 5 5 5 5 4 4 4 4 5 5 6 5 6
1 3 1 1 0 1 0 1 1 1 1 0 1 2 4 4 5 6 7 7 7 8 9 10 9 8 8 9 7 6 6 6 5 4 5 4 4 4 4 6 6 7 7 7
2 3 2 2 1 1 1 1 1 0 0 0 0 2 3 4 5 5 6 6 6 7 8 10 10 9 9 8 7 7 7 6 5 5 5 5 5 5 6 7 8 9 8 7
7 7 5 5 3 2 1 1 2 1 1 1 1 2 3 3 4 5 6 6 7 7 8 10 10 10 10 8 7 7 7 6 5 5 4 4 4 5 7 7 11 13 12 11
5 3 4 3 2 2 3 3 2 2 2 2 2 2 3 4 4 5 6 7 8 8 9 9 10 11 11 9 8 7 8 8 5 5 5 5 5 5 5 6 7 10 12 14
3 3 1 2 3 3 2 3 2 1 2 2 3 3 4 4 5 6 7 8 8 9 9 9 9 10 10 9 9 8 8 10 8 6 6 6 6 6 6 5 5 5 7 12
3 4 5 3 2 2 2 1 1 2 3 3 3 4 4 5 7 8 9 8 8 8 9 9 10 11 10 9 9 9 8 7 6 6 6 6 6 6 6 6 6 5 3 5
3 2 2 3 3 3 2 2 3 4 4 4 5 5 6 6 7 8 9 8 8 9 10 10 11 11 10 10 10 8 8 14 12 7 6 6 6 6 6 6 6 6 6 6
4 3 3 4 4 4 5 5 6 6 5 6 7 7 6 6 7 9 9 9 8 9 9 10 11 11 10 10 9 8 7 9 14 9 6 6 7 7 7 7 7 7 7 7
7 7 6 6 6 6 6 6 6 6 6 7 7 6 6 7 8 10 10 10 9 9 9 10 10 10 10 10 9 7 7 7 7 7 7 7 7 7 7 7 8 8 6 7
4 5 5 6 6 6 6 6 7 7 7 6 6 7 8 8 9 9 9 9 9 11 11 9 15 12 10 12 14 7 8 8 9 8 8 10 9 7 7 8 8 8 7 6
4 4 4 5 5 5 6 6 6 6 7 6 6 7 8 9 9 9 9 8 8 9 10 12 12 10 10 11 15 8 8 9 9 9 8 8 8 8 8 8 8 8 8 8
4 5 5 5 6 6 6 6 6 7 8 6 7 8 9 10 9 8 7 9 10 10 10 16 10 8 9 11 14 8 8 9 9 9 9 8 9 9 8 8 8 8 8 8
4 5 6 6 6 6 6 5 6 7 8 7 8 8 8 9 9 8 8 8 10 14 10 8 8 12 15 16 8 8 9 9 9 8 8 8 8 8 8 8 8 8 8 7
5 5 6 6 7 7 7 6 7 7 8 8 8 9 9 8 7 7 9 8 7 14 11 8 14 21 23 12 7 8 9 10 9 9 9 8 8 8 8 8 8 7 7 7
6 6 6 6 5 5 7 8 7 7 7 8 8 9 8 7 7 7 8 13 17 18 10 12 19 22 20 8 7 8 8 9 9 9 8 8 8 7 7 7 6 6 6 7
6 6 6 5 6 6 8 8 7 7 7 7 8 9 7 6 7 8 8 9 15 16 9 13 20 21 12 7 8 8 8 8 8 8 7 7 7 6 6 5 5 5 5 5
6 6 6 7 6 6 6 5 5 6 6 6 7 7 7 6 7 7 7 9 11 14 10 8 9 12 8 8 9 8 8 8 8 7 6 7 7 6 5 4 5 4 4 5
6 5 5 5 6 6 5 5 6 6 6 6 7 7 7 7 7 7 8 8 8 8 7 7 7 7 7 8 8 7 7 6 6 6 6 5 5 4 3 4 3 3 3 4
Wind_Direction
213 249 193 239 277 163 165 179 181 223 216 311 327 335 340 348 360 11 8 4 358 347 338 334 330 309 278 260 238 219 212 218 226 225 218 217 218 219 218 215 221 219 217 223
4 19 25 17 340 10 138 142 155 110 332 317 327 358 9 9 12 9 360 354 347 344 341 336 323 312 298 276 251 215 217 229 230 221 215 215 217 215 213 217 220 213 217 220
295 317 24 343 323 107 98 73 135 163 238 307 1 23 15 7 10 2 350 345 342 337 328 317 311 299 290 279 260 221 226 235 229 221 221 222 218 210 212 215 212 214 221 218
79 36 216 247 5 110 106 67 52 64 336 316 286 275 30 19 6 355 348 343 339 334 329 320 315 316 303 307 279 246 244 248 239 227 229 225 215 217 219 210 206 215 221 219
106 118 292 302 353 124 123 59 15 28 357 342 323 8 6 5 358 344 336 330 326 323 321 324 326 323 324 316 300 279 266 260 251 235 232 226 222 224 220 210 212 212 211 210
119 152 232 253 297 299 113 277 318 4 343 346 34 17 318 334 341 343 342 338 335 332 337 342 333 330 331 313 303 282 271 263 256 242 233 231 228 224 216 209 216 210 212 210
148 203 256 272 302 65 131 249 270 253 301 6 127 224 275 319 336 340 341 340 341 342 344 337 333 332 318 308 287 280 279 271 259 246 242 240 233 226 211 206 205 207 212 215
145 185 247 307 65 139 215 235 201 249 296 326 268 300 324 339 341 343 345 345 345 344 336 333 337 334 316 300 291 296 289 272 260 250 248 251 238 232 211 198 200 207 211 220
185 205 229 287 201 238 174 173 226 217 279 289 314 325 331 337 339 340 338 336 336 335 331 332 333 332 314 302 304 303 292 279 271 261 247 239 228 229 220 203 205 209 207 216
230 253 255 306 340 2 106 178 230 221 244 296 310 321 333 334 334 334 332 330 331 335 335 330 329 324 310 309 307 300 291 285 280 266 260 250 236 222 219 213 212 212 211 215
238 260 298 284 251 254 12 35 39 356 293 221 314 325 320 321 320 320 322 321 325 327 324 319 321 321 316 315 311 301 293 288 284 271 258 250 243 234 230 229 219 213 215 208
215 213 191 223 230 211 191 239 240 220 337 335 317 290 305 304 302 307 313 314 317 318 317 316 319 319 318 314 310 300 296 290 281 274 270 259 256 274 261 252 246 234 224 209
209 196 188 212 210 201 201 220 229 216 216 269 288 283 294 293 294 301 307 311 311 309 309 311 314 314 316 315 309 299 288 285 281 271 266 261 252 250 269 281 263 241 229 217
193 140 165 201 212 221 219 226 221 230 243 246 261 277 288 292 297 304 303 301 300 303 306 307 309 309 309 313 308 301 295 287 283 268 261 257 251 248 246 246 258 261 237 222
208 189 195 206 209 227 228 216 235 269 273 280 277 282 289 293 296 296 295 297 300 303 304 306 307 306 307 309 306 301 299 292 280 268 260 257 253 251 248 243 245 252 248 225
200 198 193 200 217 230 232 231 236 250 258 265 275 278 280 281 285 290 294 297 299 299 300 302 301 301 305 305 304 300 296 299 299 285 270 264 255 248 244 242 242 240 232 219
176 211 217 226 233 240 235 233 234 241 252 261 267 276 285 290 294 296 297 295 288 285 287 289 292 297 301 300 299 296 294 296 297 293 275 265 257 249 245 240 239 240 238 219
203 211 214 215 221 237 247 248 246 248 252 258 268 276 282 284 285 288 291 295 297 294 288 283 286 295 296 298 297 290 288 289 284 280 278 271 262 252 246 243 240 240 244 224
214 218 226 227 226 226 234 245 250 250 257 261 264 269 273 276 277 282 290 295 297 297 292 288 300 304 296 296 303 289 286 288 286 281 276 276 272 258 247 242 241 238 233 220
226 227 230 237 239 236 243 252 254 258 260 257 263 271 278 279 280 285 288 285 277 273 280 291 295 290 290 292 302 291 286 285 285 282 277 272 267 262 252 245 239 236 233 225
236 241 242 245 252 254 251 251 253 261 265 262 260 265 272 279 281 283 285 289 286 282 285 293 294 288 290 294 301 291 286 285 284 280 275 272 269 263 256 249 240 234 230 225
236 240 248 252 255 265 267 259 255 261 267 268 267 269 274 279 282 281 271 268 278 290 293 284 284 290 297 302 294 289 286 285 283 280 274 271 267 262 255 249 243 238 229 219
241 243 249 250 249 258 271 269 261 260 262 264 266 269 270 271 272 274 283 280 278 291 296 284 290 298 303 304 291 288 287 285 282 279 275 270 266 261 255 248 242 236 225 216
246 247 248 253 255 260 267 269 267 265 263 265 263 263 266 272 275 265 262 283 292 296 292 289 297 303 307 299 290 288 286 284 281 278 276 272 268 263 256 249 244 234 221 208
247 250 254 256 255 257 259 267 273 271 269 268 269 269 264 252 257 273 277 279 287 295 292 295 302 307 305 291 289 286 284 280 281 282 277 276 272 266 259 249 237 224 212 200
243 244 246 243 244 253 259 260 262 266 269 273 275 274 272 269 266 272 277 278 280 289 291 288 292 298 293 289 287 286 285 287 288 286 283 281 276 269 260 247 229 217 203 190
247 247 249 257 258 251 249 251 257 264 264 263 271 277 276 277 278 279 280 282 284 285 285 286 288 289 289 290 289 285 284 284 285 285 284 283 280 273 261 244 224 206 190 174